Location: Maddington
(51.2000°N, 1.9167°W)
Time: 22:42:16
(UTC+00:00)

NOSS 3-2 (A) - Pass Details

Date: 19 January 2021
Orbit: 783 x 1425 km, 63.4° (Epoch: 07 March)

Event Time Altitude Azimuth Distance (km) Brightness Sun altitude
Rises 05:31:22 0° 154° (SSE) 3,338 6.7 -22.9°
Reaches altitude 10° 05:35:27 10° 124° (SE) 2,504 6.5 -22.3°
Maximum altitude 05:37:29 12° 103° (ESE) 2,423 6.7 -22.0°
Drops below altitude 10° 05:39:37 10° 82° (E) 2,630 6.8 -21.7°
Sets 05:44:10 0° 54° (NE) 3,738 7.3 -21.0°
